Location: Newark
(40.4667°N, 5.6000°W)
Time: 23:38:12
(UTC+00:00)

ISS - Visible Passes

Search period start: 17 October 2019 00:00
Search period end: 27 October 2019 00:00
Orbit: 411 x 421 km, 51.6° (Epoch: 17 October)

Date Brightness Start Highest point End Pass type
(mag) Time Alt. Az. Time Alt. Az. Time Alt. Az.
23 Oct -0.8 05:34:18 10° S 05:36:31 17° SE 05:38:45 10° E visible
25 Oct -2.8 05:32:36 10° SSW 05:35:50 47° SE 05:39:05 10° ENE visible
26 Oct -1.9 04:46:47 25° SSE 04:47:22 26° SE 04:50:15 10° ENE visible
